Tracking 18030 objects as of 29-March-2017
HD Live streaming from Space Station
objects crossing your sky now

COSMOS 1367

Track COSMOS 1367 now!
COSMOS 1367 is classified as:


NORAD ID: 13205
Int'l Code: 1982-045A
Perigee: 7,024.9 km
Apogee: 33,347.1 km
Inclination: 70.7 °
Period: 717.8 minutes
Semi major axis: 26557 km
RCS: 15.3973 m2 (large)
Launch date: May 20, 1982
Source: Commonwealth of Independent States (former USSR) (CIS)
Launch site: PLESETSK MISSILE AND SPACE COMPLEX (PKMTR)
Your satellite tracking list
Your tracking list is empty





NASA's NSSDC Master Catalog

Two Line Element Set (TLE):
1 13205U 82045A   17086.47993101 +.00000112 +00000-0 +00000-0 0  9990
2 13205 070.7168 212.4977 4955785 064.5145 223.3664 02.00601108255255
Source of the keplerian elements: AFSPC